GW2922 Weather Reports


time (UTC)temp
C
wind
direction
speed
KPH
gust
KPH
rain 1hr
cm
rain 24hr
cm
rain mn
cm
humidity
%
barometer
mb
20260903074815 13 89 17.7 24.1 0.00 0.00 0.00 85 1008.3
20260903074310 13 184 11.3 17.7 0.00 0.00 0.00 85 1007.9
20260903073805 13 111 8.0 17.7 0.00 0.00 0.00 84 1007.9
20260903073300 13 128 3.2 6.4 0.00 0.00 0.00 85 1007.9
20260903072751 13 112 6.4 12.9 0.00 0.00 0.00 84 1007.9
20260903072247 13 109 4.8 11.3 0.00 0.00 0.00 84 1007.9
20260903071743 13 99 6.4 16.1 0.00 0.00 0.00 83 1007.9
20260903071239 13 144 3.2 6.4 0.00 0.00 0.00 83 1007.9
20260903070738 13 103 6.4 11.3 0.00 0.00 0.00 83 1007.9
20260903070234 13 152 3.2 11.3 0.00 0.00 0.00 83 1007.9
20260903065729 13 100 12.9 24.1 0.00 0.00 0.00 84 1007.9
20260903065228 13 164 6.4 12.9 0.00 0.00 0.00 84 1007.9
20260903064727 13 171 14.5 22.5 0.00 0.00 0.00 84 1007.9
20260903064223 13 107 6.4 16.1 0.00 0.00 0.00 84 1007.9
20260903063719 13 207 8.0 17.7 0.00 0.00 0.00 84 1007.9
20260903063213 13 115 6.4 16.1 0.00 0.00 0.00 86 1007.9
20260903062709 13 133 1.6 9.7 0.00 0.00 0.00 86 1007.9
20260903062203 13 214 4.8 9.7 0.00 0.00 0.00 86 1007.9
20260903061700 13 191 1.6 6.4 0.00 0.00 0.00 86 1007.6
20260903061158 13 196 8.0 11.3 0.00 0.00 0.00 86 1007.9
20260903060654 13 135 3.2 4.8 0.00 0.00 0.00 86 1007.9
20260903060149 13 111 3.2 6.4 0.00 0.00 0.00 86 1007.9
20260903055647 13 205 3.2 3.2 0.00 0.00 0.00 86 1007.9
20260903055145 13 128 0.0 3.2 0.00 0.00 0.00 85 1007.6
20260903054640 13 95 3.2 6.4 0.00 0.00 0.00 85 1007.9
20260903054136 13 174 4.8 9.7 0.00 0.00 0.00 85 1007.6
20260903053631 13 200 4.8 11.3 0.00 0.00 0.00 85 1007.6
20260903053126 13 133 3.2 20.9 0.00 0.00 0.00 85 1007.6
20260903052622 13 112 6.4 22.5 0.00 0.00 0.00 85 1007.6
20260903052118 13 164 11.3 20.9 0.00 0.00 0.00 85 1007.6
20260903051618 13 171 6.4 20.9 0.00 0.00 0.00 85 1007.6
20260903051114 13 182 9.7 14.5 0.00 0.00 0.00 85 1007.6
20260903050613 13 113 14.5 20.9 0.00 0.00 0.00 85 1007.9
20260903050108 13 141 3.2 9.7 0.00 0.00 0.00 84 1007.9
20260903045608 13 176 4.8 11.3 0.00 0.00 0.00 84 1007.6
20260903045104 13 174 8.0 9.7 0.00 0.00 0.00 84 1007.9
20260903044600 13 127 8.0 12.9 0.00 0.00 0.00 84 1007.6
20260903044055 13 195 3.2 9.7 0.00 0.00 0.00 83 1007.9
20260903043551 13 126 1.6 3.2 0.00 0.00 0.00 83 1007.6
20260903043050 13 125 3.2 9.7 0.00 0.00 0.00 83 1007.6
20260903042546 13 115 1.6 11.3 0.00 0.00 0.00 83 1007.6
20260903042041 13 172 4.8 6.4 0.00 0.00 0.00 83 1007.6
20260903041538 13 125 1.6 3.2 0.00 0.00 0.00 83 1007.6
20260903041033 13 116 0.0 1.6 0.00 0.00 0.00 82 1007.6
20260903040532 13 113 1.6 4.8 0.00 0.00 0.00 82 1007.6
20260903040029 13 119 0.0 1.6 0.00 0.00 0.00 82 1007.6
20260903035523 13 138 1.6 3.2 0.00 0.00 0.00 83 1007.3
20260903035019 13 96 1.6 1.6 0.00 0.00 0.00 82 1007.3
20260903034514 13 107 0.0 4.8 0.00 0.00 0.00 81 1007.3
20260903034008 13 115 1.6 1.6 0.00 0.00 0.00 80 1006.9
20260903033504 13 114 6.4 11.3 0.00 0.00 0.00 80 1006.9
20260903032958 13 192 1.6 3.2 0.00 0.00 0.00 80 1006.6
20260903032453 13 126 1.6 16.1 0.00 0.00 0.00 80 1006.6
20260903031948 13 122 3.2 12.9 0.00 0.00 0.00 81 1006.6
20260903031442 13 119 3.2 4.8 0.00 0.00 0.00 81 1006.6
20260903030932 13 149 4.8 9.7 0.00 0.00 0.00 81 1006.3
20260903030428 13 110 1.6 6.4 0.00 0.00 0.00 81 1006.3
20260903025924 14 98 1.6 4.8 0.00 0.00 0.00 81 1006.3
20260903025419 14 114 1.6 4.8 0.00 0.00 0.00 81 1006.3
20260903024915 14 141 1.6 6.4 0.00 0.00 0.00 81 1006.3
20260903024408 14 179 6.4 11.3 0.00 0.00 0.00 81 1005.9
20260903023903 14 135 3.2 6.4 0.00 0.00 0.00 81 1005.9
20260903023359 14 128 3.2 9.7 0.00 0.00 0.00 80 1005.6
20260903022854 15 87 4.8 11.3 0.00 0.00 0.00 80 1005.6
20260903022353 15 190 6.4 16.1 0.00 0.00 0.00 80 1005.2
20260903021852 15 19 4.8 9.7 0.00 0.00 0.00 80 1005.2
20260903021348 15 152 12.9 24.1 0.00 0.00 0.00 79 1005.2
20260903020847 15 118 8.0 12.9 0.00 0.00 0.00 79 1004.9
20260903020343 15 179 6.4 16.1 0.00 0.00 0.00 78 1005.2
20260903015837 15 158 8.0 33.8 0.00 0.00 0.00 78 1004.9
20260903015333 15 149 9.7 12.9 0.00 0.00 0.00 80 1004.9
20260903014828 15 166 9.7 20.9 0.00 0.00 0.00 80 1004.9
20260903014327 15 219 8.0 30.6 0.00 0.00 0.00 81 1004.9
20260903013817 15 152 6.4 17.7 0.00 0.00 0.00 82 1004.6
20260903013316 15 131 8.0 17.7 0.00 0.00 0.00 82 1004.9
20260903012815 15 105 8.0 33.8 0.00 0.00 0.00 81 1004.9
20260903012309 15 157 14.5 25.7 0.00 0.00 0.00 82 1004.6
20260903011803 15 103 12.9 22.5 0.00 0.00 0.00 82 1004.6
20260903011303 15 82 12.9 29.0 0.00 0.00 0.00 82 1004.6
20260903010758 15 182 16.1 25.7 0.00 0.00 0.00 83 1004.6
20260903010254 15 144 14.5 17.7 0.00 0.00 0.00 83 1004.6
20260903005752 15 213 14.5 27.4 0.00 0.00 0.00 82 1004.9
20260903005247 15 174 12.9 25.7 0.00 0.00 0.00 82 1004.9
20260903004743 15 110 14.5 24.1 0.00 0.00 0.00 82 1004.9
20260903004238 14 153 12.9 27.4 0.00 0.00 0.00 83 1004.9
20260903003734 14 247 14.5 25.7 0.00 0.00 0.00 84 1004.9
20260903003229 14 103 9.7 22.5 0.00 0.00 0.00 85 1004.9
20260903002723 14 164 17.7 25.7 0.00 0.00 0.00 85 1004.9
20260903002218 13 123 9.7 30.6 0.00 0.00 0.00 86 1004.6
20260903001713 14 126 12.9 30.6 0.00 0.00 0.00 87 1004.9
20260903001207 14 161 6.4 17.7 0.00 0.00 0.00 86 1004.6
20260903000702 14 104 4.8 22.5 0.00 0.00 0.00 85 1004.9
20260903000204 14 128 16.1 22.5 0.00 0.00 0.00 84 1004.9
20260902235700 14 157 8.0 22.5 0.00 0.00 0.00 85 1004.6
20260902235156 14 232 16.1 24.1 0.00 0.00 0.00 86 1004.6
20260902234655 14 215 14.5 24.1 0.00 0.00 0.00 86 1004.6
20260902234154 14 56 17.7 30.6 0.00 0.00 0.00 86 1004.9
20260902233649 14 160 4.8 20.9 0.00 0.00 0.00 86 1004.6
20260902233149 14 191 14.5 22.5 0.00 0.00 0.00 87 1004.9
20260902232648 13 113 6.4 20.9 0.00 0.00 0.00 87 1004.9
20260902232147 13 204 16.1 29.0 0.00 0.00 0.00 87 1005.2
20260902231642 13 184 14.5 24.1 0.00 0.00 0.00 87 1004.9
20260902231137 13 161 20.9 29.0 0.00 0.00 0.00 87 1005.2
20260902230632 13 157 24.1 33.8 0.00 0.00 0.00 86 1005.2
20260902230130 14 178 20.9 27.4 0.00 0.00 0.00 85 1005.2
20260902225626 14 148 8.0 25.7 0.00 0.00 0.00 84 1005.2
20260902225125 15 124 14.5 29.0 0.00 0.00 0.00 83 1004.9
20260902224623 15 158 9.7 22.5 0.00 0.00 0.00 81 1005.2
20260902224120 15 206 16.1 30.6 0.00 0.00 0.00 80 1005.2
20260902223616 15 106 9.7 33.8 0.00 0.00 0.00 79 1005.2
20260902223115 16 218 3.2 17.7 0.00 0.00 0.00 78 1005.2
20260902222614 16 205 6.4 29.0 0.00 0.00 0.00 76 1005.2
20260902222113 16 115 9.7 29.0 0.00 0.00 0.00 75 1005.2
20260902221607 16 207 4.8 24.1 0.00 0.00 0.00 74 1005.2
20260902221102 16 130 9.7 30.6 0.00 0.00 0.00 74 1005.2
20260902220557 16 147 20.9 51.5 0.00 0.00 0.00 74 1005.2
20260902220052 16 241 22.5 35.4 0.00 0.00 0.00 75 1005.2
20260902215548 16 218 16.1 29.0 0.00 0.00 0.00 74 1004.9
20260902215043 16 192 14.5 20.9 0.00 0.00 0.00 75 1005.2
20260902214538 17 203 22.5 33.8 0.00 0.00 0.00 74 1005.2
20260902214037 17 151 9.7 29.0 0.00 0.00 0.00 73 1005.2
20260902213533 17 190 1.6 30.6 0.00 0.00 0.00 75 1005.2
20260902213032 17 119 17.7 30.6 0.00 0.00 0.00 75 1005.6
20260902212528 17 131 9.7 17.7 0.00 0.00 0.00 76 1005.2
20260902212024 17 147 19.3 38.6 0.00 0.00 0.00 77 1005.2
20260902211520 17 108 17.7 29.0 0.00 0.00 0.00 75 1005.2
20260902211015 18 117 11.3 20.9 0.00 0.00 0.00 72 1005.6
20260902210514 17 26 9.7 25.7 0.00 0.00 0.00 72 1005.6
20260902210014 17 193 9.7 14.5 0.00 0.00 0.00 72 1005.2
20260902205508 17 104 8.0 22.5 0.00 0.00 0.00 73 1005.2
20260902205004 17 110 9.7 29.0 0.00 0.00 0.00 75 1005.6
20260902204504 17 179 14.5 25.7 0.00 0.00 0.00 74 1005.2
20260902203959 17 98 9.7 24.1 0.00 0.00 0.00 76 1005.6
20260902203454 17 153 16.1 17.7 0.00 0.00 0.00 76 1005.6
20260902202952 17 119 11.3 16.1 0.00 0.00 0.00 77 1005.6
20260902202448 16 178 9.7 22.5 0.00 0.00 0.00 78 1005.9
20260902201945 17 129 22.5 29.0 0.00 0.00 0.00 76 1005.6
20260902201440 17 167 8.0 22.5 0.00 0.00 0.00 75 1005.9
20260902200940 17 211 17.7 27.4 0.00 0.00 0.00 72 1005.9
20260902200435 18 150 19.3 27.4 0.00 0.00 0.00 67 1005.9
20260902195930 18 233 9.7 40.2 0.00 0.00 0.00 66 1005.6
20260902195426 18 156 16.1 38.6 0.00 0.00 0.00 65 1005.6
20260902194920 18 142 14.5 25.7 0.00 0.00 0.00 66 1005.6
20260902194419 18 191 11.3 22.5 0.00 0.00 0.00 67 1005.6
20260902193915 18 172 14.5 25.7 0.00 0.00 0.00 66 1005.6
20260902193411 18 142 8.0 22.5 0.00 0.00 0.00 66 1005.6
20260902192910 18 171 16.1 30.6 0.00 0.00 0.00 67 1005.6
20260902192409 19 151 33.8 41.8 0.00 0.00 0.00 66 1005.6
20260902191908 18 104 14.5 40.2 0.00 0.00 0.00 66 1005.6
20260902191404 17 168 8.0 27.4 0.00 0.00 0.00 69 1005.6
20260902190858 18 188 8.0 33.8 0.00 0.00 0.00 69 1005.6
20260902190353 18 201 14.5 24.1 0.00 0.00 0.00 69 1005.9
20260902185849 17 178 22.5 30.6 0.00 0.00 0.00 71 1005.6
20260902185345 17 175 12.9 29.0 0.00 0.00 0.00 72 1005.9
20260902184840 17 87 12.9 22.5 0.00 0.00 0.00 72 1005.9
20260902184335 16 204 9.7 22.5 0.00 0.00 0.00 74 1006.3
20260902183830 16 132 6.4 20.9 0.00 0.00 0.00 74 1006.3
20260902183327 16 146 8.0 12.9 0.00 0.00 0.00 74 1006.3
20260902182822 16 129 12.9 24.1 0.00 0.00 0.00 74 1006.3
20260902182319 16 147 14.5 29.0 0.00 0.00 0.00 73 1006.3
20260902181815 16 160 17.7 24.1 0.00 0.00 0.00 75 1006.6
20260902181310 16 196 12.9 20.9 0.00 0.00 0.00 75 1006.6
20260902180804 16 153 9.7 22.5 0.00 0.00 0.00 75 1006.6
20260902180300 16 108 6.4 24.1 0.00 0.00 0.00 75 1006.6
20260902175755 16 209 11.3 22.5 0.00 0.00 0.00 75 1006.6
20260902175251 16 182 12.9 17.7 0.00 0.00 0.00 76 1006.9
20260902174746 16 145 9.7 20.9 0.00 0.00 0.00 77 1006.9
20260902174242 16 163 11.3 17.7 0.00 0.00 0.00 77 1006.9
20260902173737 16 161 14.5 22.5 0.00 0.00 0.00 76 1006.6
20260902173237 16 184 6.4 17.7 0.00 0.00 0.00 77 1006.9
20260902172731 16 137 9.7 16.1 0.00 0.00 0.00 77 1006.9
20260902172226 16 179 14.5 17.7 0.00 0.00 0.00 77 1006.9
20260902171721 16 170 17.7 27.4 0.00 0.00 0.00 77 1006.9
20260902171216 16 88 3.2 27.4 0.00 0.00 0.00 77 1006.9
20260902170712 16 86 11.3 27.4 0.00 0.00 0.00 77 1006.9
20260902170208 16 121 12.9 27.4 0.00 0.00 0.00 77 1006.9
20260902165702 16 169 12.9 22.5 0.00 0.00 0.00 76 1006.9
20260902165156 16 124 11.3 27.4 0.00 0.00 0.00 75 1006.9
20260902164652 16 132 6.4 20.9 0.00 0.00 0.00 75 1006.9
20260902164150 16 185 6.4 24.1 0.00 0.00 0.00 76 1006.9
20260902163646 16 193 12.9 20.9 0.00 0.00 0.00 75 1006.9
20260902163145 16 173 8.0 30.6 0.00 0.00 0.00 75 1006.9
20260902162644 16 99 12.9 29.0 0.00 0.00 0.00 75 1006.9
20260902162139 16 139 16.1 24.1 0.00 0.00 0.00 76 1006.9
20260902161634 16 39 11.3 22.5 0.00 0.00 0.00 75 1006.9
20260902161130 16 63 6.4 24.1 0.00 0.00 0.00 75 1006.9
20260902160626 16 126 14.5 20.9 0.00 0.00 0.00 76 1007.3
20260902160120 16 196 16.1 24.1 0.00 0.00 0.00 76 1006.9
20260902155613 16 134 9.7 22.5 0.00 0.00 0.00 75 1007.3
20260902155112 16 106 11.3 35.4 0.00 0.00 0.00 76 1006.9
20260902154607 16 180 17.7 27.4 0.00 0.00 0.00 77 1006.9
20260902154103 16 133 9.7 41.8 0.00 0.00 0.00 77 1006.9
20260902153601 15 171 25.7 51.5 0.00 0.00 0.00 78 1006.6
20260902153057 15 188 8.0 30.6 0.00 0.00 0.00 79 1006.9
20260902152553 15 160 11.3 37.0 0.00 0.00 0.00 79 1006.9
20260902152048 15 167 16.1 29.0 0.00 0.00 0.00 80 1006.9
20260902151544 15 172 16.1 25.7 0.00 0.00 0.00 80 1006.9
20260902151043 15 118 11.3 22.5 0.00 0.00 0.00 81 1007.3
20260902150538 15 191 17.7 22.5 0.00 0.00 0.00 81 1007.3
20260902150034 15 91 8.0 14.5 0.00 0.00 0.00 81 1007.3
20260902145528 15 119 4.8 25.7 0.00 0.00 0.00 82 1007.3
20260902145022 15 118 17.7 33.8 0.00 0.00 0.00 82 1007.6
20260902144519 15 172 8.0 24.1 0.00 0.00 0.00 82 1007.3
20260902144014 15 100 11.3 20.9 0.00 0.00 0.00 81 1007.6
20260902143509 15 201 12.9 27.4 0.00 0.00 0.00 81 1007.3
20260902143005 15 162 6.4 24.1 0.00 0.00 0.00 82 1007.6
20260902142500 15 96 9.7 24.1 0.00 0.00 0.00 83 1007.6
20260902141955 15 164 14.5 17.7 0.00 0.00 0.00 83 1007.6
20260902141449 15 178 3.2 25.7 0.00 0.00 0.00 83 1007.6
20260902140949 14 292 14.5 29.0 0.00 0.00 0.00 83 1007.6
20260902140445 14 181 8.0 27.4 0.00 0.00 0.00 84 1007.6
20260902135939 14 141 8.0 27.4 0.00 0.00 0.00 84 1007.6
20260902135435 14 166 17.7 22.5 0.00 0.00 0.00 84 1007.6
20260902134933 14 195 14.5 20.9 0.00 0.00 0.00 85 1007.9
20260902134430 14 141 8.0 22.5 0.00 0.00 0.00 85 1007.6
20260902133924 14 165 16.1 29.0 0.00 0.00 0.00 85 1007.6
20260902133419 14 148 14.5 37.0 0.00 0.00 0.00 85 1007.6
20260902132914 14 169 20.9 37.0 0.00 0.00 0.00 85 1007.6
20260902132409 14 219 14.5 37.0 0.00 0.00 0.00 84 1007.6
20260902131904 14 142 9.7 17.7 0.00 0.00 0.00 85 1007.6
20260902131401 14 128 12.9 33.8 0.00 0.00 0.00 85 1007.6
20260902130900 14 151 17.7 30.6 0.00 0.00 0.00 85 1007.6
20260902130356 14 97 17.7 29.0 0.00 0.00 0.00 85 1007.3
20260902125850 14 193 4.8 22.5 0.00 0.00 0.00 86 1007.9
20260902125347 14 158 14.5 25.7 0.00 0.00 0.00 86 1007.6
20260902124843 14 159 16.1 24.1 0.00 0.00 0.00 85 1007.6
20260902124339 14 170 14.5 29.0 0.00 0.00 0.00 85 1007.6
20260902123833 14 49 14.5 22.5 0.00 0.00 0.00 85 1007.6
20260902123330 14 165 11.3 16.1 0.00 0.00 0.00 84 1007.6
20260902122828 14 180 12.9 17.7 0.00 0.00 0.00 83 1007.6
20260902122325 14 177 9.7 24.1 0.00 0.00 0.00 82 1007.9
20260902121824 15 182 4.8 12.9 0.00 0.00 0.00 82 1007.9
20260902121319 15 144 6.4 9.7 0.00 0.00 0.00 82 1007.9
20260902120815 14 101 11.3 22.5 0.00 0.00 0.00 82 1007.9
20260902120311 14 155 9.7 20.9 0.00 0.00 0.00 84 1007.6
20260902115805 13 116 8.0 11.3 0.00 0.00 0.00 84 1007.9
20260902115301 14 174 4.8 17.7 0.00 0.00 0.00 84 1007.9
20260902114757 14 121 6.4 12.9 0.00 0.00 0.00 84 1007.9
20260902114253 14 155 9.7 12.9 0.00 0.00 0.00 83 1007.9
20260902113747 14 182 9.7 16.1 0.00 0.00 0.00 82 1007.9
20260902113243 14 83 11.3 16.1 0.00 0.00 0.00 82 1008.3
20260902112742 14 200 9.7 12.9 0.00 0.00 0.00 82 1008.3
20260902112239 14 117 4.8 16.1 0.00 0.00 0.00 82 1008.3
20260902111734 14 164 4.8 16.1 0.00 0.00 0.00 82 1008.6
20260902111231 14 210 6.4 11.3 0.00 0.00 0.00 82 1008.6
20260902110726 14 179 4.8 11.3 0.00 0.00 0.00 82 1008.6
20260902110222 14 151 4.8 14.5 0.00 0.00 0.00 81 1009.0
20260902105721 14 78 6.4 12.9 0.00 0.00 0.00 81 1009.0
20260902105217 14 114 6.4 6.4 0.00 0.00 0.00 82 1008.6
20260902104712 14 160 4.8 14.5 0.00 0.00 0.00 81 1009.0
20260902104208 14 112 1.6 12.9 0.00 0.00 0.00 81 1009.0
20260902103707 15 137 9.7 11.3 0.00 0.00 0.00 81 1009.0
20260902103202 14 163 3.2 9.7 0.00 0.00 0.00 80 1009.0
20260902102658 15 124 9.7 14.5 0.00 0.00 0.00 80 1009.0
20260902102155 15 122 9.7 14.5 0.00 0.00 0.00 80 1009.0
20260902101650 15 151 8.0 11.3 0.00 0.00 0.00 80 1009.0
20260902101150 15 135 4.8 9.7 0.00 0.00 0.00 79 1009.0
20260902100644 15 106 4.8 11.3 0.00 0.00 0.00 78 1009.0
20260902100139 15 133 8.0 11.3 0.00 0.00 0.00 79 1008.6
20260902095638 14 113 3.2 9.7 0.00 0.00 0.00 80 1009.0
20260902095138 14 83 6.4 9.7 0.00 0.00 0.00 81 1009.0
20260902094633 13 134 3.2 4.8 0.00 0.00 0.00 82 1009.0
20260902094129 13 135 0.0 0.0 0.00 0.00 0.00 82 1009.0
20260902093623 13 117 3.2 4.8 0.00 0.00 0.00 82 1009.3
20260902093112 13 106 1.6 4.8 0.00 0.00 0.00 82 1009.3
20260902092607 13 152 3.2 6.4 0.00 0.00 0.00 83 1009.0
20260902092102 13 126 3.2 6.4 0.00 0.00 0.00 84 1009.3
20260902091557 13 135 1.6 4.8 0.00 0.00 0.00 84 1009.3
20260902091053 14 124 3.2 6.4 0.00 0.00 0.00 84 1009.3
20260902090549 14 157 4.8 4.8 0.00 0.00 0.00 84 1009.6
20260902090048 14 174 1.6 3.2 0.00 0.00 0.00 83 1009.6
20260902085548 14 176 3.2 11.3 0.00 0.00 0.00 83 1009.6
20260902085043 14 112 1.6 9.7 0.00 0.00 0.00 83 1009.6
20260902084539 14 118 0.0 4.8 0.00 0.00 0.00 84 1009.6
20260902084034 13 184 4.8 12.9 0.00 0.00 0.00 85 1009.6
20260902083524 13 121 4.8 12.9 0.00 0.00 0.00 88 1010.0
20260902083019 13 184 4.8 9.7 0.00 0.00 0.00 88 1009.6
20260902082515 13 101 1.6 4.8 0.00 0.00 0.00 89 1010.0
20260902082011 13 116 3.2 6.4 0.00 0.00 0.00 89 1010.0
20260902081507 13 118 3.2 6.4 0.00 0.00 0.00 89 1010.0
20260902081001 13 164 3.2 4.8 0.00 0.00 0.00 89 1010.0
20260902080457 13 184 6.4 9.7 0.00 0.00 0.00 89 1010.3
20260902075957 13 184 1.6 6.4 0.00 0.00 0.00 89 1010.0
20260902075453 13 162 1.6 3.2 0.00 0.00 0.00 89 1010.3
20260902074949 13 198 3.2 4.8 0.00 0.00 0.00 89 1010.3